Regional Weather Roundup
Issued by NWS Northern Indiana

Home | Current Version | Previous Version | Text Only | Print | Product List | Glossary On
Versions: 1 2 3 4 5 6 7 8 9 10 11 12 13 14 15 16 17 18 19 20 21 22 23 24 25 26 27 28 29 30 31 32 33 34 35 36 37 38 39 40 41 42 43 44 45 46 47 48 49 50
291
ASUS43 KIWX 052010
RWRIWX

KIWX WEATHER ROUNDUP
NATIONAL WEATHER SERVICE NORTHERN INDIANA
400 PM EDT THU MAY 05 2016

NOTE: "FAIR" INDICATES FEW OR NO CLOUDS BELOW 12,000 FEET WITH NO
SIGNIFICANT WEATHER AND/OR OBSTRUCTIONS TO VISIBILITY.

* THESE STATIONS ARE NOT UNDER NWS QUALITY CONTROL. THEY ALSO MAY NOT
  REPORT WEATHER SUCH AS PRECIPITATION OR FOG.

INZ001>027-052100-
NORTHERN INDIANA

CITY           SKY/WX    TMP DP  RH WIND       PRES   REMARKS
GARY*            N/A    N/A N/A N/A MISG        N/A
VALPARAISO     SUNNY     53  43  68 NW10      29.99S
LAPORTE*       SUNNY     53  47  78 NW16      29.98F
SOUTH BEND     SUNNY     56  46  69 NW14      29.97R
ELKHART*       MOSUNNY   63  52  67 NW1G17    29.94S
GOSHEN         PTSUNNY   64  46  52 N13       29.91S
MONTICELLO*    SUNNY     63  40  43 N16G24    29.94S
LOGANSPORT*    MOSUNNY   61  50  67 N13G20    29.93S
ANGOLA*          N/A     64  41  42 N14       29.88F
FORT WAYNE     PTSUNNY   62  42  47 N18G25    29.88S
HUNTINGTON*    CLOUDY    62  44  50 N9        29.88F
PERU/GRISSOM   MOSUNNY   63  47  55 N15G23    29.90S

$$
INZ028>050-052100-
CENTRAL INDIANA

CITY           SKY/WX    TMP DP  RH WIND       PRES   REMARKS
LAFAYETTE      MOSUNNY   63  45  51 N14G22    29.94S
KOKOMO*        PTSUNNY   64  46  52 N13G18    29.90S
MUNCIE*        CLOUDY    62  44  51 N15       29.88S
INDIANAPOLIS   PTSUNNY   60  46  59 NW13      29.91S

$$
MIZ043>046-050>051-056>058-064>065-071>073-077>080-052100-
SOUTHWEST LOWER MICHIGAN

CITY           SKY/WX    TMP DP  RH WIND       PRES   REMARKS
BATTLE CREEK   PTSUNNY   66  43  43 NE13      29.91S
BENTON HARBOR  MOSUNNY   47  41  80 NW12      29.99R
COLDWATER*     MOSUNNY   65  42  44 N16       29.89F
HILLSDALE*     MOSUNNY   64  33  31 N14G22    29.88F
HOLLAND        SUNNY    N/A N/A N/A W9        29.96F
GRAND RAPIDS   PTSUNNY   65  41  41 N10       29.92F
KALAMAZOO      PTSUNNY   62  43  49 N15G22    29.92S
STURGIS*       CLOUDY    63  42  46 N8        29.89S
THREE RIVERS*  CLOUDY    64  42  45 NE7G16    29.91S

$$
OHZ001>008-015>018-024>025-052100-
NORTHWEST OHIO

CITY           SKY/WX    TMP DP  RH WIND       PRES   REMARKS
WAUSEON*         N/A     63 N/A N/A N15G23    29.86S
DEFIANCE       PTSUNNY   66  41  40 N16G24    29.85F
FINDLAY        SUNNY     65  36  34 NE23G30   29.83S
TOLEDO EXPRESS CLOUDY    63  37  38 N18G25    29.84S
TOLEDO METCALF PTSUNNY   64  41  42 NE12G21   29.85S
LIMA           MOSUNNY   62  43  49 NE18G29   29.83F

$$
AND FOR LAKE MICHIGAN COASTAL AND OPEN LAKE BUOY OBSERVATIONS

STATION/POSITION TEMP    WIND        PRES    VSBY  WAVE
                 AIR SEA DIR/SP/G                  HT/PER
                 (F)     (DEG/KT/KT) (MB)    (MI)  (FT/S)
CALUMET HARBOR    47     340/ 14/ 20 1016.1F
MICHIGAN CITY     43     330/ 11/ 13   N/A
BURNS HARBOR      42     360/  9/ 14 1017.3R
SAINT JOSEPH      44     330/ 10/ 12 1016.6R
SOUTH LAKE BUOY   41 40  360/ 12/ 14 1016.0S         3/ 6
4 MI NW BRIDGMAN  43 47                N/A           4/ 5

$$
&&




USA.gov is the U.S. government's official web portal to all federal, state and local government web resources and services.